Hourly Data Report for September 14, 2017

All times are specified in Local Standard Time (LST). Add 1 hour to adjust for Daylight Saving Time where and when it is observed.

SUSSEX FOUR CORNERS
NEW BRUNSWICK

45°44'30.048" N
65°31'44.039" W
47.00 m
8105210
71656
ASF

Download Data

Hourly Data (September 2017)
Hourly Data Report for September 14, 2017
Temp Definition
°C
Dew Point Temp Definition
°C
Rel Hum Definition
%
Wind Dir Definition
10's deg

Wind Spd Definition
km/h
Visibility Definition
km
Stn Press Definition
kPa
Hmdx Definition


Wind Chill Definition


Weather Definition


TIME
00:00 14.7 12.9 89 24 8   100.10     LegendNANA
01:00 14.2 12.5 90 24 5   100.10     LegendNANA
02:00 13.6 12.5 93 25 6   100.12     LegendNANA
03:00 13.2 12.2 94 20 3   100.12     LegendNANA
04:00 13.2 12.2 94 20 5   100.12     LegendNANA
05:00 12.7 11.8 94 22 5   100.16     LegendNANA
06:00 12.5 11.8 95 23 3   100.20     LegendNANA
07:00 14.0 13.0 94 25 10   100.26     LegendNANA
08:00 16.7 14.4 86 23 5   100.28     LegendNANA
09:00 19.9 15.5 75 21 9   100.29     LegendNANA
10:00 22.2 16.1 68 20 13   100.30 27   LegendNANA
11:00 24.5 17.0 63 20 10   100.26 30   LegendNANA
12:00 26.4 16.4 54 19 17   100.22 31   LegendNANA
13:00 26.7 15.9 52 20 22   100.22 31   LegendNANA
14:00 26.7 16.2 53 21 23   100.20 31   LegendNANA
15:00 26.5 15.8 52 20 19   100.19 31   LegendNANA
16:00 25.8 16.7 57 20 16   100.20 31   LegendNANA
17:00 24.6 17.0 63 21 12   100.24 30   LegendNANA
18:00 22.1 16.2 70 21 9   100.31 27   LegendNANA
19:00 20.2 15.3 74 21 14   100.40     LegendNANA
20:00 18.2 15.0 82 25 6   100.51     LegendNANA
21:00 16.6 14.8 89 25 9   100.55     LegendNANA
22:00 16.0 14.7 92 26 12   100.57     LegendNANA
23:00 15.0 14.0 94 26 9   100.61     LegendNANA

Notes on Data Quality.

Legend

  • E = Estimated
  • M = Missing
  • NA = Not Available
  • ‡ = Partner data that is not subject to review by the National Climate Archives
Date modified: